Location: Baia Mare
(47.6567°N, 23.5850°E)
Time: 19:34:25
(UTC+03:00)

ISS - Pass Details

Date: 17 September 2018
Orbit: 403 x 408 km, 51.6° (Epoch: 26 September)

Event Time Altitude Azimuth Distance (km) Brightness Sun altitude
Exits shadow 05:54:39 20° 228° (SW) 997 -2.4 -12.5°
Maximum altitude 05:54:56 20° 221° (SW) 989 -2.4 -12.4°
Drops below altitude 10° 05:57:25 10° 171° (S) 1,452 -1.1 -12.0°
Sets 05:59:49 0° 154° (SSE) 2,306 0.1 -11.6°
